Location: Quarata
(43.5000°N, 11.8167°E)
Time: 02:10:10
(UTC+00:00)

Daily predictions for brighter satellites

Satellite Brightness Start Highest point End
(mag) Time Altitude Azimuth Time Altitude Azimuth Time Altitude Azimuth
CENTAUR R/B 4.0 02:14:21 44° ENE 02:14:21 44° ENE 02:21:08 10° ESE
ATLAS 2AS CENTAUR R/B 4.4 02:27:56 27° SE 02:30:23 31° ESE 02:37:06 10° NE
BREEZE-M DEB (TANK) 4.4 02:45:10 74° E 02:45:10 74° E 03:05:40 10° ENE
Lacrosse 5 4.1 02:52:48 22° E 02:52:48 22° E 02:54:58 10° ENE
Cosmos 2263 Rocket 3.8 03:01:26 28° NE 03:01:26 28° NE 03:04:07 10° NNE
SJ 16-02 3.9 03:08:47 17° NE 03:08:47 17° NE 03:10:07 10° NE
CZ-4C R/B 3.5 03:25:49 26° SSE 03:27:31 32° ESE 03:32:25 10° NE
Cosmos 1603 4.4 03:30:28 46° SSE 03:30:28 46° SSE 03:34:20 10° SSE
BREEZE-M DEB (TANK) 4.4 03:30:33 57° NNW 03:31:31 63° N 03:35:37 10° E
ATLAS 3B R/B 3.7 03:30:35 29° N 03:33:27 41° NE 03:40:09 10° ESE
Cosmos 1943 3.4 03:36:00 64° SSE 03:36:00 64° SSE 03:40:45 10° SSE
Lacrosse 4 Rocket 2.8 03:38:11 38° ESE 03:38:11 38° ESE 03:41:08 10° SE
ALOS 3.2 03:50:20 10° NNE 03:53:16 39° NNE 03:53:16 39° NNE
Cosmos 923 Rocket 4.3 03:53:37 43° N 03:55:18 67° ENE 04:00:35 10° SSE
deb Chang Zheng 4 4.3 03:52:00 10° NNE 03:56:16 53° E 04:00:31 10° S
METEOR-M 4.2 03:54:25 10° NNE 03:59:48 77° ESE 04:05:08 10° S
NOSS 3-4 (A) 3.2 04:00:50 63° WNW 04:01:19 66° NW 04:07:36 10° NNE
NOSS 3-4 (C) 3.2 04:00:54 63° W 04:01:27 66° NW 04:07:44 10° NNE
NOSS 3-2 (C) 4.2 04:00:07 48° W 04:01:42 54° WSW 04:10:00 10° SSE
CENTAUR R/B 3.3 04:01:35 45° WNW 04:03:43 54° WSW 04:12:15 10° S
Milstar 3 Cent rocket 4.3 04:00:16 20° SW 04:04:15 31° S 04:14:55 10° ESE
ARGOS Delta rocket 4.4 04:01:02 10° N 04:04:43 45° NNW 04:04:43 45° NNW
Cosmos 158 Rocket 3.7 04:10:38 49° NNW 04:12:00 90° NW 04:17:00 10° SSE
Meteor 2-17 Rocket 4.5 04:06:26 10° S 04:12:27 79° E 04:18:32 10° N
Cosmos 1515 Rocket 4.3 04:09:37 13° N 04:13:32 54° E 04:17:54 10° SSE
SL-4 R/B 3.5 04:15:03 24° NNE 04:15:03 24° NNE 04:17:26 10° NE
SKYMED 2 3.8 04:12:09 10° SSE 04:16:27 67° ENE 04:19:24 20° N
Cosmos 1151 Rocket 3.0 04:17:01 64° SW 04:17:01 64° SW 04:20:51 10° S
GPS 2-04 Rocket1 4.2 04:16:28 26° S 04:16:43 26° S 04:19:57 10° ESE
Cosmos 1844 Rocket 3.4 04:11:31 10° S 04:16:58 53° ESE 04:22:29 10° NNE
Cosmos 1782 2.9 04:16:35 38° N 04:18:03 75° E 04:22:04 10° SSE
ERS-2 3.3 04:17:16 10° S 04:19:17 31° S 04:19:17 31° S
ATLAS 2AS CENTAUR R/B 3.0 04:15:30 23° SW 04:20:55 68° NW 04:28:47 10° NNE
Cosmos 1680 Rocket 3.5 04:20:02 25° NNW 04:23:17 88° ENE 04:28:36 10° SSE
FALCON 9 DEB 4.0 04:24:40 37° NNE 04:24:40 37° NNE 04:26:50 10° NE
SJ-12 3.8 04:19:58 10° NNE 04:24:03 83° E 04:28:06 10° SSW
ATLAS 5 CENTAUR R/B 4.1 04:31:19 13° N 04:31:19 13° N 04:31:43 10° N
Atlas Centaur 2 4.0 04:26:40 14° SW 04:30:27 23° S 04:34:42 10° SE
Cosmos 1844 4.4 04:25:16 10° S 04:30:39 54° ESE 04:36:05 10° NNE
RESURS DK-1 2.3 04:27:04 10° SSW 04:31:13 85° ESE 04:35:24 10° NNE
CRYOSAT 2 4.2 04:26:43 10° S 04:31:34 72° W 04:36:27 10° N
Lacrosse 5 2.0 04:32:03 42° W 04:33:18 52° NW 04:38:17 10° NE
ATLAS CENTAUR R/B 1.9 04:32:06 29° N 04:33:44 49° NE 04:37:34 10° SE
ADEOS 3.7 04:29:44 10° N 04:34:46 48° WNW 04:39:45 10° SW
Cosmos 1500 Rocket 4.0 04:31:19 10° S 04:35:33 61° E 04:39:50 10° NNE
Cosmos 1328 Rocket 3.7 04:35:40 41° WNW 04:36:34 48° W 04:40:49 10° SSW
Meteor PRIRODA 3.7 04:33:14 10° NNE 04:37:00 80° ESE 04:40:43 10° S
Meteor 2-6 Rocket 4.4 04:32:56 10° N 04:38:19 67° ENE 04:43:44 10° SSE
H-2A R/B 3.6 04:37:04 10° NNE 04:40:55 53° E 04:44:41 10° S
Cosmos 2263 Rocket 3.3 04:43:11 25° NW 04:43:11 25° NW 04:47:30 10° N
Cosmos 2112 Rocket 3.9 04:38:54 17° NNW 04:43:02 74° WSW 04:48:21 10° SSE
Okean O Rocket 4.5 04:41:14 10° NE 04:44:31 20° E 04:47:46 10° SE
Gbstr 26 Del rocket 2.5 04:43:33 42° NW 04:44:45 88° NE 04:48:43 10° ESE
SJ 16-02 2.4 04:45:52 27° NW 04:45:52 27° NW 04:48:46 10° N
Meteor 1-4 Rocket 4.1 04:46:48 20° SW 04:46:48 20° SW 04:48:14 10° SSW
Nadezhda 3 Rocket 4.4 04:44:30 10° N 04:50:48 66° E 04:56:58 10° SSE
Cosmos 1898 Rocket 3.5 04:47:00 10° SSW 04:52:15 63° WNW 04:57:35 10° NNE
CZ-2C R/B 4.4 04:49:39 10° SE 04:54:24 31° ENE 04:59:04 10° N
FALCON 9 DEB 3.6 04:56:35 34° NW 04:57:00 36° NNW 05:00:01 10° NE
FALCON 9 DEB 3.7 04:56:45 33° NW 04:57:07 34° NNW 05:00:07 10° NE
FENGYUN 3A 4.5 04:54:56 10° N 04:59:27 28° WNW 05:03:55 10° WSW
Cosmos 1743 Rocket 3.5 04:55:03 10° SSW 04:59:28 72° W 05:03:58 10° N
Envisat 3.6 04:55:07 10° NNE 05:00:10 60° E 05:05:10 10° S
Cosmos 1408 Rocket 4.1 04:57:29 10° SW 05:01:35 35° WNW 05:05:42 10° N
H-2A R/B 3.3 04:59:47 10° NNE 05:03:32 49° E 05:07:13 10° S
NOSS 7 (H) 4.3 05:01:45 14° SW 05:04:31 52° NW 05:07:26 10° NNE
COSMO-SKYMED 1 3.1 05:00:33 10° SSW 05:04:33 36° W 05:07:59 13° NNW
NOSS 7 (E) 4.3 05:01:21 10° SW 05:05:18 84° NW 05:08:28 10° NE
Cosmos 1937 Rocket 3.4 05:04:16 10° SSW 05:09:20 61° WNW 05:14:30 10° NNE
MOS 1 Rocket 3.3 05:10:05 10° S 05:14:51 75° WSW 05:19:58 10° NNW
Lacrosse 4 Rocket 3.2 05:14:32 15° W 05:15:03 16° WSW 05:17:40 10° SW
Cosmos 2154 Rocket 3.9 05:09:02 10° SSW 05:15:14 77° W 05:21:33 10° N
CZ-4C R/B 2.5 05:11:05 10° WSW 05:15:48 41° NW 05:21:28 10° NNE
Cosmos 1833 Rocket 4.3 05:10:51 10° N 05:15:49 31° NE 05:20:44 10° ESE
Cosmos 1689 Rocket 3.3 05:15:21 10° SSW 05:17:39 22° W 05:18:12 21° WNW
CZ-4B R/B 3.7 05:14:12 10° N 05:18:15 34° WNW 05:22:12 10° SW
Cosmos 1805 Rocket 3.6 05:14:14 10° S 05:18:39 89° WSW 05:23:09 10° N
Meteor 1-27 Rocket 4.0 05:14:06 10° N 05:19:54 75° E 05:25:46 10° SSE
FALCON 9 DEB 4.1 05:18:32 19° WNW 05:19:57 27° NNW 05:22:47 10° NE
Meteor 1-10 Rocket 4.2 05:16:21 10° NNW 05:21:51 66° W 05:27:25 10° S
Aureole 2 Rocket 1.8 05:20:52 10° SW 05:23:19 44° WNW 05:25:47 10° N
ATLAS 3B R/B 3.0 05:17:51 11° NW 05:24:19 51° WSW 05:31:16 10° S
COSMOS 2406 4.3 05:20:32 10° NNW 05:26:02 44° ENE 05:31:32 10° SE
Cosmos 1862 3.8 05:22:30 10° SSW 05:26:19 39° WNW 05:30:09 10° N
Genesis I 4.1 05:25:05 10° WSW 05:28:24 28° NW 05:31:46 10° NNE
YAOGAN 6 2.4 05:25:38 10° N 05:29:06 64° WNW 05:32:33 10° SSW
Cosmos 2341 Rocket 4.2 05:25:03 10° S 05:31:14 77° E 05:37:28 10° N
ALOS 4.0 05:30:07 10° NW 05:31:44 12° WNW 05:31:44 12° WNW
Cosmos 2278 Rocket 3.7 05:27:11 10° S 05:32:26 41° ESE 05:37:43 10° NE
PSLV R/B 4.1 05:34:14 10° N 05:37:52 40° WNW 05:41:24 10° SW
SL-8 Rocket 4.4 05:32:47 10° S 05:38:52 67° E 05:44:59 10° NNE
SL-24 DEB 4.4 05:37:27 10° S 05:42:06 56° W 05:46:51 10° NNW
Cosmos 405 Rocket 3.5 05:39:05 10° SW 05:42:16 27° WNW 05:45:29 10° NNW
BREEZE M DEB (TANK) 2.4 05:35:23 10° WSW 05:42:36 81° NNW 05:45:15 10° ENE
USA 305 4.3 05:39:18 10° NW 05:43:05 28° NNE 05:46:50 10° E
NOAA 12 4.2 05:41:44 10° NNE 05:47:02 88° ESE 05:52:17 10° SSW
Cosmos 1812 3.8 05:44:55 10° NW 05:48:05 25° W 05:51:13 10° SW
Cosmos 2228 Rocket 4.0 05:46:50 10° NNW 05:50:37 28° W 05:54:21 10° SSW
USA 306 4.2 05:47:44 10° NW 05:51:34 30° NNE 05:55:24 10° E
Cosmos 1633 Rocket 3.2 05:47:48 10° S 05:52:13 81° E 05:56:39 10° N
SL-4 R/B 3.1 05:51:16 10° NW 05:54:37 28° NNE 05:57:46 10° ENE
USA 234 3.3 05:51:24 10° NE 05:57:58 79° NW 06:04:30 10° WSW
